Year,Month,Day,Hour,Minute,Value (Times are PST for temperature in C)
2006,07,22,00,00,19.60
2006,07,22,00,01,19.60
2006,07,22,00,02,19.60
2006,07,22,00,03,19.60
2006,07,22,00,04,19.60
2006,07,22,00,05,19.60
2006,07,22,00,06,19.60
2006,07,22,00,07,19.60
2006,07,22,00,08,19.60
2006,07,22,00,09,19.60
2006,07,22,00,10,19.60
2006,07,22,00,11,19.60
2006,07,22,00,12,19.50
2006,07,22,00,13,19.50
2006,07,22,00,14,19.50
2006,07,22,00,15,19.50
2006,07,22,00,16,19.40
2006,07,22,00,17,19.40
2006,07,22,00,18,19.40
2006,07,22,00,19,19.40
2006,07,22,00,20,19.40
2006,07,22,00,21,19.40
2006,07,22,00,22,19.40
2006,07,22,00,23,19.50
2006,07,22,00,24,19.50
2006,07,22,00,25,19.50
2006,07,22,00,26,19.60
2006,07,22,00,27,19.60
2006,07,22,00,28,19.60
2006,07,22,00,29,19.70
2006,07,22,00,30,19.70
2006,07,22,00,31,19.80
2006,07,22,00,32,19.80
2006,07,22,00,33,19.80
2006,07,22,00,34,19.80
2006,07,22,00,35,19.80
2006,07,22,00,36,19.80
2006,07,22,00,37,19.80
2006,07,22,00,38,19.80
2006,07,22,00,39,19.80
2006,07,22,00,40,19.80
2006,07,22,00,41,19.80
2006,07,22,00,42,19.70
2006,07,22,00,43,19.70
2006,07,22,00,44,19.70
2006,07,22,00,45,19.70
2006,07,22,00,46,19.70
2006,07,22,00,47,19.70
2006,07,22,00,48,19.70
2006,07,22,00,49,19.70
2006,07,22,00,50,19.60
2006,07,22,00,51,19.60
2006,07,22,00,52,19.60
2006,07,22,00,53,19.60
2006,07,22,00,54,19.60
2006,07,22,00,55,19.60
2006,07,22,00,56,19.60
2006,07,22,00,57,19.60
2006,07,22,00,58,19.60
2006,07,22,00,59,19.60
2006,07,22,01,00,19.60
2006,07,22,01,01,19.50
2006,07,22,01,02,19.50
2006,07,22,01,03,19.50
2006,07,22,01,04,19.50
2006,07,22,01,05,19.50
2006,07,22,01,06,19.40
2006,07,22,01,07,19.40
2006,07,22,01,08,19.40
2006,07,22,01,09,19.40
2006,07,22,01,10,19.40
2006,07,22,01,11,19.40
2006,07,22,01,12,19.40
2006,07,22,01,13,19.40
2006,07,22,01,14,19.40
2006,07,22,01,15,19.40
2006,07,22,01,16,19.40
2006,07,22,01,17,19.40
2006,07,22,01,18,19.40
2006,07,22,01,19,19.30
2006,07,22,01,20,19.20
2006,07,22,01,21,19.10
2006,07,22,01,22,19.00
2006,07,22,01,23,18.90
2006,07,22,01,24,18.80
2006,07,22,01,25,18.60
2006,07,22,01,26,18.50
2006,07,22,01,27,18.30
2006,07,22,01,28,18.20
2006,07,22,01,29,18.10
2006,07,22,01,30,18.10
2006,07,22,01,31,18.00
2006,07,22,01,32,17.90
2006,07,22,01,33,17.90
2006,07,22,01,34,17.90
2006,07,22,01,35,17.80
2006,07,22,01,36,17.80
2006,07,22,01,37,17.80
2006,07,22,01,38,17.80
2006,07,22,01,39,17.80
2006,07,22,01,40,17.80
2006,07,22,01,41,17.80
2006,07,22,01,42,17.80
2006,07,22,01,43,17.80
2006,07,22,01,44,17.80
2006,07,22,01,45,17.80
2006,07,22,01,46,17.80
2006,07,22,01,47,17.80
2006,07,22,01,48,17.80
2006,07,22,01,49,17.80
2006,07,22,01,50,17.80
2006,07,22,01,51,17.80
2006,07,22,01,52,17.90
2006,07,22,01,53,17.90
2006,07,22,01,54,17.90
2006,07,22,01,55,17.90
2006,07,22,01,56,17.90
2006,07,22,01,57,17.90
2006,07,22,01,58,17.90
2006,07,22,01,59,17.90
2006,07,22,02,00,17.90
2006,07,22,02,01,17.90
2006,07,22,02,02,17.90
2006,07,22,02,03,17.90
2006,07,22,02,04,17.90
2006,07,22,02,05,17.90
2006,07,22,02,06,17.90
2006,07,22,02,07,17.90
2006,07,22,02,08,17.90
2006,07,22,02,09,18.00
2006,07,22,02,10,18.00
2006,07,22,02,11,18.00
2006,07,22,02,12,18.10
2006,07,22,02,13,18.10
2006,07,22,02,14,18.10
2006,07,22,02,15,18.10
2006,07,22,02,16,18.10
2006,07,22,02,17,18.10
2006,07,22,02,18,18.10
2006,07,22,02,19,18.10
2006,07,22,02,20,18.10
2006,07,22,02,21,18.20
2006,07,22,02,22,18.20
2006,07,22,02,23,18.20
2006,07,22,02,24,18.20
2006,07,22,02,25,18.30
2006,07,22,02,26,18.30
2006,07,22,02,27,18.30
2006,07,22,02,28,18.30
2006,07,22,02,29,18.30
2006,07,22,02,30,18.20
2006,07,22,02,31,18.20
2006,07,22,02,32,18.20
2006,07,22,02,33,18.20
2006,07,22,02,34,18.30
2006,07,22,02,35,18.30
2006,07,22,02,36,18.30
2006,07,22,02,37,18.30
2006,07,22,02,38,18.30
2006,07,22,02,39,18.30
2006,07,22,02,40,18.30
2006,07,22,02,41,18.30
2006,07,22,02,42,18.30
2006,07,22,02,43,18.30
2006,07,22,02,44,18.40
2006,07,22,02,45,18.40
2006,07,22,02,46,18.40
2006,07,22,02,47,18.40
2006,07,22,02,48,18.40
2006,07,22,02,49,18.40
2006,07,22,02,50,18.40
2006,07,22,02,51,18.40
2006,07,22,02,52,18.40
2006,07,22,02,53,18.40
2006,07,22,02,54,18.40
2006,07,22,02,55,18.40
2006,07,22,02,56,18.40
2006,07,22,02,57,18.40
2006,07,22,02,58,18.40
2006,07,22,02,59,18.40
2006,07,22,03,00,18.40
2006,07,22,03,01,18.40
2006,07,22,03,02,18.40
2006,07,22,03,03,18.40
2006,07,22,03,04,18.40
2006,07,22,03,05,18.40
2006,07,22,03,06,18.40
2006,07,22,03,07,18.40
2006,07,22,03,08,18.40
2006,07,22,03,09,18.30
2006,07,22,03,10,18.30
2006,07,22,03,11,18.30
2006,07,22,03,12,18.30
2006,07,22,03,13,18.30
2006,07,22,03,14,18.30
2006,07,22,03,15,18.30
2006,07,22,03,16,18.30
2006,07,22,03,17,18.30
2006,07,22,03,18,18.30
2006,07,22,03,19,18.30
2006,07,22,03,20,18.30
2006,07,22,03,21,18.30
2006,07,22,03,22,18.30
2006,07,22,03,23,18.40
2006,07,22,03,24,18.40
2006,07,22,03,25,18.40
2006,07,22,03,26,18.40
2006,07,22,03,27,18.40
2006,07,22,03,28,18.30
2006,07,22,03,29,18.30
2006,07,22,03,30,18.30
2006,07,22,03,31,18.30
2006,07,22,03,32,18.30
2006,07,22,03,33,18.30
2006,07,22,03,34,18.30
2006,07,22,03,35,18.30
2006,07,22,03,36,18.30
2006,07,22,03,37,18.30
2006,07,22,03,38,18.30
2006,07,22,03,39,18.30
2006,07,22,03,40,18.30
2006,07,22,03,41,18.30
2006,07,22,03,42,18.30
2006,07,22,03,43,18.30
2006,07,22,03,44,18.30
2006,07,22,03,45,18.40
2006,07,22,03,46,18.40
2006,07,22,03,47,18.40
2006,07,22,03,48,18.40
2006,07,22,03,49,18.40
2006,07,22,03,50,18.30
2006,07,22,03,51,18.30
2006,07,22,03,52,18.30
2006,07,22,03,53,18.30
2006,07,22,03,54,18.30
2006,07,22,03,55,18.30
2006,07,22,03,56,18.30
2006,07,22,03,57,18.30
2006,07,22,03,58,18.30
2006,07,22,03,59,18.30
2006,07,22,04,00,18.30
2006,07,22,04,01,18.30
2006,07,22,04,02,18.30
2006,07,22,04,03,18.30
2006,07,22,04,04,18.30
2006,07,22,04,05,18.30
2006,07,22,04,06,18.30
2006,07,22,04,07,18.30
2006,07,22,04,08,18.30
2006,07,22,04,09,18.20
2006,07,22,04,10,18.20
2006,07,22,04,11,18.10
2006,07,22,04,12,18.10
2006,07,22,04,13,18.10
2006,07,22,04,14,18.00
2006,07,22,04,15,18.00
2006,07,22,04,16,18.00
2006,07,22,04,17,18.00
2006,07,22,04,18,18.00
2006,07,22,04,19,17.90
2006,07,22,04,20,17.90
2006,07,22,04,21,17.90
2006,07,22,04,22,18.00
2006,07,22,04,23,18.00
2006,07,22,04,24,18.00
2006,07,22,04,25,18.10
2006,07,22,04,26,18.10
2006,07,22,04,27,18.10
2006,07,22,04,28,18.10
2006,07,22,04,29,18.20
2006,07,22,04,30,18.20
2006,07,22,04,31,18.20
2006,07,22,04,32,18.20
2006,07,22,04,33,18.30
2006,07,22,04,34,18.40
2006,07,22,04,35,18.40
2006,07,22,04,36,18.50
2006,07,22,04,37,18.50
2006,07,22,04,38,18.60
2006,07,22,04,39,18.60
2006,07,22,04,40,18.60
2006,07,22,04,41,18.70
2006,07,22,04,42,18.70
2006,07,22,04,43,18.70
2006,07,22,04,44,18.70
2006,07,22,04,45,18.80
2006,07,22,04,46,18.80
2006,07,22,04,47,18.80
2006,07,22,04,48,18.80
2006,07,22,04,49,18.80
2006,07,22,04,50,18.90
2006,07,22,04,51,18.90
2006,07,22,04,52,18.90
2006,07,22,04,53,19.00
2006,07,22,04,54,19.00
2006,07,22,04,55,19.00
2006,07,22,04,56,19.00
2006,07,22,04,57,19.10
2006,07,22,04,58,19.10
2006,07,22,04,59,19.10
2006,07,22,05,00,19.10
2006,07,22,05,01,19.00
2006,07,22,05,02,19.00
2006,07,22,05,03,19.00
2006,07,22,05,04,18.90
2006,07,22,05,05,18.90
2006,07,22,05,06,18.90
2006,07,22,05,07,19.00
2006,07,22,05,08,19.00
2006,07,22,05,09,19.00
2006,07,22,05,10,19.00
2006,07,22,05,11,19.00
2006,07,22,05,12,19.10
2006,07,22,05,13,19.10
2006,07,22,05,14,19.10
2006,07,22,05,15,19.10
2006,07,22,05,16,19.10
2006,07,22,05,17,19.10
2006,07,22,05,18,19.10
2006,07,22,05,19,19.10
2006,07,22,05,20,19.10
2006,07,22,05,21,19.10
2006,07,22,05,22,19.00
2006,07,22,05,23,19.00
2006,07,22,05,24,18.90
2006,07,22,05,25,18.90
2006,07,22,05,26,18.90
2006,07,22,05,27,18.90
2006,07,22,05,28,18.90
2006,07,22,05,29,18.90
2006,07,22,05,30,18.90
2006,07,22,05,31,18.90
2006,07,22,05,32,18.80
2006,07,22,05,33,18.80
2006,07,22,05,34,18.80
2006,07,22,05,35,18.70
2006,07,22,05,36,18.70
2006,07,22,05,37,18.70
2006,07,22,05,38,18.60
2006,07,22,05,39,18.60
2006,07,22,05,40,18.50
2006,07,22,05,41,18.40
2006,07,22,05,42,18.40
2006,07,22,05,43,18.30
2006,07,22,05,44,18.30
2006,07,22,05,45,18.30
2006,07,22,05,46,18.30
2006,07,22,05,47,18.30
2006,07,22,05,48,18.30
2006,07,22,05,49,18.30
2006,07,22,05,50,18.30
2006,07,22,05,51,18.40
2006,07,22,05,52,18.40
2006,07,22,05,53,18.50
2006,07,22,05,54,18.50
2006,07,22,05,55,18.60
2006,07,22,05,56,18.60
2006,07,22,05,57,18.60
2006,07,22,05,58,18.60
2006,07,22,05,59,18.60
2006,07,22,06,00,18.70
2006,07,22,06,01,18.70
2006,07,22,06,02,18.70
2006,07,22,06,03,18.70
2006,07,22,06,04,18.80
2006,07,22,06,05,18.80
2006,07,22,06,06,18.80
2006,07,22,06,07,18.70
2006,07,22,06,08,18.70
2006,07,22,06,09,18.70
2006,07,22,06,10,18.60
2006,07,22,06,11,18.60
2006,07,22,06,12,18.50
2006,07,22,06,13,18.50
2006,07,22,06,14,18.40
2006,07,22,06,15,18.40
2006,07,22,06,16,18.40
2006,07,22,06,17,18.30
2006,07,22,06,18,18.30
2006,07,22,06,19,18.30
2006,07,22,06,20,18.20
2006,07,22,06,21,18.20
2006,07,22,06,22,18.20
2006,07,22,06,23,18.10
2006,07,22,06,24,18.10
2006,07,22,06,25,18.10
2006,07,22,06,26,18.10
2006,07,22,06,27,18.00
2006,07,22,06,28,18.00
2006,07,22,06,29,18.00
2006,07,22,06,30,18.00
2006,07,22,06,31,18.00
2006,07,22,06,32,18.00
2006,07,22,06,33,18.00
2006,07,22,06,34,18.00
2006,07,22,06,35,18.00
2006,07,22,06,36,18.00
2006,07,22,06,37,18.00
2006,07,22,06,38,18.00
2006,07,22,06,39,18.00
2006,07,22,06,40,18.00
2006,07,22,06,41,18.00
2006,07,22,06,42,18.00
2006,07,22,06,43,18.00
2006,07,22,06,44,18.00
2006,07,22,06,45,18.00
2006,07,22,06,46,18.00
2006,07,22,06,47,18.00
2006,07,22,06,48,18.00
2006,07,22,06,49,18.00
2006,07,22,06,50,18.10
2006,07,22,06,51,18.10
2006,07,22,06,52,18.10
2006,07,22,06,53,18.10
2006,07,22,06,54,18.20
2006,07,22,06,55,18.20
2006,07,22,06,56,18.20
2006,07,22,06,57,18.20
2006,07,22,06,58,18.20
2006,07,22,06,59,18.20
2006,07,22,07,00,18.20
2006,07,22,07,01,18.30
2006,07,22,07,02,18.30
2006,07,22,07,03,18.30
2006,07,22,07,04,18.30
2006,07,22,07,05,18.30
2006,07,22,07,06,18.30
2006,07,22,07,07,18.20
2006,07,22,07,08,18.20
2006,07,22,07,09,18.20
2006,07,22,07,10,18.20
2006,07,22,07,11,18.10
2006,07,22,07,12,18.10
2006,07,22,07,13,18.10
2006,07,22,07,14,18.10
2006,07,22,07,15,18.10
2006,07,22,07,16,18.20
2006,07,22,07,17,18.20
2006,07,22,07,18,18.30
2006,07,22,07,19,18.30
2006,07,22,07,20,18.30
2006,07,22,07,21,18.40
2006,07,22,07,22,18.50
2006,07,22,07,23,18.60
2006,07,22,07,24,18.60
2006,07,22,07,25,18.70
2006,07,22,07,26,18.80
2006,07,22,07,27,18.80
2006,07,22,07,28,18.90
2006,07,22,07,29,19.00
2006,07,22,07,30,19.10
2006,07,22,07,31,19.20
2006,07,22,07,32,19.30
2006,07,22,07,33,19.50
2006,07,22,07,34,19.70
2006,07,22,07,35,19.90
2006,07,22,07,36,20.00
2006,07,22,07,37,20.10
2006,07,22,07,38,20.10
2006,07,22,07,39,20.10
2006,07,22,07,40,20.10
2006,07,22,07,41,20.10
2006,07,22,07,42,20.10
2006,07,22,07,43,20.20
2006,07,22,07,44,20.30
2006,07,22,07,45,20.40
2006,07,22,07,46,20.40
2006,07,22,07,47,20.40
2006,07,22,07,48,20.40
2006,07,22,07,49,20.30
2006,07,22,07,50,20.20
2006,07,22,07,51,20.10
2006,07,22,07,52,20.10
2006,07,22,07,53,20.10
2006,07,22,07,54,20.10
2006,07,22,07,55,20.20
2006,07,22,07,56,20.30
2006,07,22,07,57,20.50
2006,07,22,07,58,20.50
2006,07,22,07,59,20.60
2006,07,22,08,00,20.70
2006,07,22,08,01,20.70
2006,07,22,08,02,20.80
2006,07,22,08,03,20.80
2006,07,22,08,04,20.90
2006,07,22,08,05,21.00
2006,07,22,08,06,21.00
2006,07,22,08,07,21.10
2006,07,22,08,08,21.10
2006,07,22,08,09,21.20
2006,07,22,08,10,21.20
2006,07,22,08,11,21.20
2006,07,22,08,12,21.20
2006,07,22,08,13,21.10
2006,07,22,08,14,20.90
2006,07,22,08,15,20.70
2006,07,22,08,16,20.40
2006,07,22,08,17,20.20
2006,07,22,08,18,20.10
2006,07,22,08,19,19.90
2006,07,22,08,20,19.80
2006,07,22,08,21,19.70
2006,07,22,08,22,19.50
2006,07,22,08,23,19.40
2006,07,22,08,24,19.40
2006,07,22,08,25,19.50
2006,07,22,08,26,19.50
2006,07,22,08,27,19.60
2006,07,22,08,28,19.70
2006,07,22,08,29,19.80
2006,07,22,08,30,20.00
2006,07,22,08,31,20.10
2006,07,22,08,32,20.20
2006,07,22,08,33,20.20
2006,07,22,08,34,20.30
2006,07,22,08,35,20.40
2006,07,22,08,36,20.50
2006,07,22,08,37,20.60
2006,07,22,08,38,20.80
2006,07,22,08,39,20.90
2006,07,22,08,40,21.00
2006,07,22,08,41,21.10
2006,07,22,08,42,21.10
2006,07,22,08,43,21.10
2006,07,22,08,44,21.00
2006,07,22,08,45,20.90
2006,07,22,08,46,20.80
2006,07,22,08,47,20.80
2006,07,22,08,48,20.80
2006,07,22,08,49,20.80
2006,07,22,08,50,20.80
2006,07,22,08,51,20.90
2006,07,22,08,52,21.10
2006,07,22,08,53,21.20
2006,07,22,08,54,21.40
2006,07,22,08,55,21.60
2006,07,22,08,56,21.50
2006,07,22,08,57,21.30
2006,07,22,08,58,21.30
2006,07,22,08,59,21.30
2006,07,22,09,00,21.30
2006,07,22,09,01,21.40
2006,07,22,09,02,21.40
2006,07,22,09,03,21.30
2006,07,22,09,04,21.30
2006,07,22,09,05,21.40
2006,07,22,09,06,21.20
2006,07,22,09,07,21.00
2006,07,22,09,08,20.80
2006,07,22,09,09,20.70
2006,07,22,09,10,20.70
2006,07,22,09,11,20.80
2006,07,22,09,12,21.00
2006,07,22,09,13,21.10
2006,07,22,09,14,21.30
2006,07,22,09,15,21.40
2006,07,22,09,16,21.20
2006,07,22,09,17,21.10
2006,07,22,09,18,21.00
2006,07,22,09,19,20.90
2006,07,22,09,20,20.80
2006,07,22,09,21,20.90
2006,07,22,09,22,21.00
2006,07,22,09,23,21.10
2006,07,22,09,24,21.20
2006,07,22,09,25,21.30
2006,07,22,09,26,21.40
2006,07,22,09,27,21.40
2006,07,22,09,28,21.50
2006,07,22,09,29,21.50
2006,07,22,09,30,21.50
2006,07,22,09,31,21.50
2006,07,22,09,32,21.60
2006,07,22,09,33,21.70
2006,07,22,09,34,21.90
2006,07,22,09,35,22.10
2006,07,22,09,36,22.30
2006,07,22,09,37,22.50
2006,07,22,09,38,22.70
2006,07,22,09,39,22.90
2006,07,22,09,40,23.10
2006,07,22,09,41,23.20
2006,07,22,09,42,23.40
2006,07,22,09,43,23.50
2006,07,22,09,44,23.60
2006,07,22,09,45,23.70
2006,07,22,09,46,23.80
2006,07,22,09,47,23.80
2006,07,22,09,48,23.90
2006,07,22,09,49,24.00
2006,07,22,09,50,24.20
2006,07,22,09,51,24.50
2006,07,22,09,52,24.70
2006,07,22,09,53,24.90
2006,07,22,09,54,25.10
2006,07,22,09,55,25.30
2006,07,22,09,56,25.60
2006,07,22,09,57,25.80
2006,07,22,09,58,25.90
2006,07,22,09,59,26.00
2006,07,22,10,00,26.10
2006,07,22,10,01,26.00
2006,07,22,10,02,25.90
2006,07,22,10,03,25.50
2006,07,22,10,04,25.00
2006,07,22,10,05,24.50
2006,07,22,10,06,23.90
2006,07,22,10,07,23.50
2006,07,22,10,08,23.20
2006,07,22,10,09,23.00
2006,07,22,10,10,22.90
2006,07,22,10,11,22.90
2006,07,22,10,12,22.90
2006,07,22,10,13,22.90
2006,07,22,10,14,22.90
2006,07,22,10,15,23.00
2006,07,22,10,16,23.10
2006,07,22,10,17,23.30
2006,07,22,10,18,23.40
2006,07,22,10,19,23.50
2006,07,22,10,20,23.50
2006,07,22,10,21,23.60
2006,07,22,10,22,23.60
2006,07,22,10,23,23.70
2006,07,22,10,24,23.80
2006,07,22,10,25,23.80
2006,07,22,10,26,23.90
2006,07,22,10,27,23.90
2006,07,22,10,28,24.00
2006,07,22,10,29,24.20
2006,07,22,10,30,24.40
2006,07,22,10,31,24.70
2006,07,22,10,32,24.80
2006,07,22,10,33,24.90
2006,07,22,10,34,24.90
2006,07,22,10,35,24.90
2006,07,22,10,36,24.90
2006,07,22,10,37,24.80
2006,07,22,10,38,24.80
2006,07,22,10,39,24.80
2006,07,22,10,40,24.80
2006,07,22,10,41,24.80
2006,07,22,10,42,24.80
2006,07,22,10,43,24.90
2006,07,22,10,44,25.00
2006,07,22,10,45,25.10
2006,07,22,10,46,25.20
2006,07,22,10,47,25.30
2006,07,22,10,48,25.50
2006,07,22,10,49,25.60
2006,07,22,10,50,25.70
2006,07,22,10,51,25.80
2006,07,22,10,52,25.90
2006,07,22,10,53,25.90
2006,07,22,10,54,25.90
2006,07,22,10,55,25.90
2006,07,22,10,56,25.90
2006,07,22,10,57,25.90
2006,07,22,10,58,25.90
2006,07,22,10,59,25.90
2006,07,22,11,00,25.80
2006,07,22,11,01,25.90
2006,07,22,11,02,26.00
2006,07,22,11,03,26.10
2006,07,22,11,04,26.30
2006,07,22,11,05,26.30
2006,07,22,11,06,26.00
2006,07,22,11,07,25.70
2006,07,22,11,08,25.20
2006,07,22,11,09,25.00
2006,07,22,11,10,24.80
2006,07,22,11,11,24.70
2006,07,22,11,12,24.50
2006,07,22,11,13,24.40
2006,07,22,11,14,24.40
2006,07,22,11,15,24.30
2006,07,22,11,16,24.20
2006,07,22,11,17,24.10
2006,07,22,11,18,24.10
2006,07,22,11,19,24.10
2006,07,22,11,20,24.00
2006,07,22,11,21,23.90
2006,07,22,11,22,23.80
2006,07,22,11,23,23.80
2006,07,22,11,24,23.80
2006,07,22,11,25,23.90
2006,07,22,11,26,24.00
2006,07,22,11,27,24.10
2006,07,22,11,28,24.20
2006,07,22,11,29,24.30
2006,07,22,11,30,24.40
2006,07,22,11,31,24.40
2006,07,22,11,32,24.40
2006,07,22,11,33,24.50
2006,07,22,11,34,24.50
2006,07,22,11,35,24.50
2006,07,22,11,36,24.50
2006,07,22,11,37,24.50
2006,07,22,11,38,24.50
2006,07,22,11,39,24.50
2006,07,22,11,40,24.50
2006,07,22,11,41,24.30
2006,07,22,11,42,24.10
2006,07,22,11,43,24.00
2006,07,22,11,44,23.90
2006,07,22,11,45,23.70
2006,07,22,11,46,23.60
2006,07,22,11,47,23.50
2006,07,22,11,48,23.60
2006,07,22,11,49,23.80
2006,07,22,11,50,24.00
2006,07,22,11,51,24.10
2006,07,22,11,52,24.20
2006,07,22,11,53,24.20
2006,07,22,11,54,24.10
2006,07,22,11,55,23.80
2006,07,22,11,56,23.60
2006,07,22,11,57,23.40
2006,07,22,11,58,23.40
2006,07,22,11,59,23.50
2006,07,22,12,00,23.70
2006,07,22,12,01,23.90
2006,07,22,12,02,24.10
2006,07,22,12,03,24.40
2006,07,22,12,04,24.70
2006,07,22,12,05,24.90
2006,07,22,12,06,25.10
2006,07,22,12,07,25.30
2006,07,22,12,08,25.50
2006,07,22,12,09,25.70
2006,07,22,12,10,25.70
2006,07,22,12,11,25.80
2006,07,22,12,12,25.80
2006,07,22,12,13,25.90
2006,07,22,12,14,25.90
2006,07,22,12,15,25.90
2006,07,22,12,16,25.90
2006,07,22,12,17,25.90
2006,07,22,12,18,25.90
2006,07,22,12,19,25.80
2006,07,22,12,20,25.80
2006,07,22,12,21,25.90
2006,07,22,12,22,25.90
2006,07,22,12,23,26.10
2006,07,22,12,24,26.20
2006,07,22,12,25,26.10
2006,07,22,12,26,25.90
2006,07,22,12,27,25.90
2006,07,22,12,28,25.90
2006,07,22,12,29,25.80
2006,07,22,12,30,25.70
2006,07,22,12,31,25.60
2006,07,22,12,32,25.50
2006,07,22,12,33,25.40
2006,07,22,12,34,25.40
2006,07,22,12,35,25.40
2006,07,22,12,36,25.50
2006,07,22,12,37,25.60
2006,07,22,12,38,25.80
2006,07,22,12,39,25.90
2006,07,22,12,40,26.00
2006,07,22,12,41,26.10
2006,07,22,12,42,26.20
2006,07,22,12,43,26.20
2006,07,22,12,44,26.20
2006,07,22,12,45,26.10
2006,07,22,12,46,25.90
2006,07,22,12,47,25.70
2006,07,22,12,48,25.40
2006,07,22,12,49,25.20
2006,07,22,12,50,25.20
2006,07,22,12,51,25.10
2006,07,22,12,52,25.10
2006,07,22,12,53,25.10
2006,07,22,12,54,25.00
2006,07,22,12,55,25.10
2006,07,22,12,56,25.10
2006,07,22,12,57,25.30
2006,07,22,12,58,25.40
2006,07,22,12,59,25.50
2006,07,22,13,00,25.70
2006,07,22,13,01,25.70
2006,07,22,13,02,25.90
2006,07,22,13,03,25.90
2006,07,22,13,04,25.90
2006,07,22,13,05,26.10
2006,07,22,13,06,26.20
2006,07,22,13,07,26.40
2006,07,22,13,08,26.50
2006,07,22,13,09,26.60
2006,07,22,13,10,26.70
2006,07,22,13,11,26.80
2006,07,22,13,12,26.80
2006,07,22,13,13,26.80
2006,07,22,13,14,26.80
2006,07,22,13,15,26.90
2006,07,22,13,16,26.90
2006,07,22,13,17,26.90
2006,07,22,13,18,26.90
2006,07,22,13,19,26.90
2006,07,22,13,20,26.90
2006,07,22,13,21,27.00
2006,07,22,13,22,27.10
2006,07,22,13,23,27.20
2006,07,22,13,24,27.20
2006,07,22,13,25,27.10
2006,07,22,13,26,27.00
2006,07,22,13,27,26.90
2006,07,22,13,28,26.80
2006,07,22,13,29,26.80
2006,07,22,13,30,26.80
2006,07,22,13,31,26.90
2006,07,22,13,32,27.00
2006,07,22,13,33,27.10
2006,07,22,13,34,27.20
2006,07,22,13,35,27.30
2006,07,22,13,36,27.40
2006,07,22,13,37,27.50
2006,07,22,13,38,27.50
2006,07,22,13,39,27.40
2006,07,22,13,40,27.50
2006,07,22,13,41,27.60
2006,07,22,13,42,27.70
2006,07,22,13,43,27.90
2006,07,22,13,44,28.10
2006,07,22,13,45,28.20
2006,07,22,13,46,28.20
2006,07,22,13,47,28.30
2006,07,22,13,48,28.30
2006,07,22,13,49,28.40
2006,07,22,13,50,28.40
2006,07,22,13,51,28.40
2006,07,22,13,52,28.50
2006,07,22,13,53,28.50
2006,07,22,13,54,28.60
2006,07,22,13,55,28.60
2006,07,22,13,56,28.70
2006,07,22,13,57,28.70
2006,07,22,13,58,28.70
2006,07,22,13,59,28.80
2006,07,22,14,00,28.90
2006,07,22,14,01,29.00
2006,07,22,14,02,29.10
2006,07,22,14,03,29.10
2006,07,22,14,04,29.20
2006,07,22,14,05,29.30
2006,07,22,14,06,29.40
2006,07,22,14,07,29.50
2006,07,22,14,08,29.60
2006,07,22,14,09,29.50
2006,07,22,14,10,29.40
2006,07,22,14,11,29.30
2006,07,22,14,12,29.20
2006,07,22,14,13,29.20
2006,07,22,14,14,29.30
2006,07,22,14,15,29.40
2006,07,22,14,16,29.40
2006,07,22,14,17,29.50
2006,07,22,14,18,29.60
2006,07,22,14,19,29.60
2006,07,22,14,20,29.70
2006,07,22,14,21,29.80
2006,07,22,14,22,29.90
2006,07,22,14,23,30.00
2006,07,22,14,24,30.10
2006,07,22,14,25,30.00
2006,07,22,14,26,29.80
2006,07,22,14,27,29.60
2006,07,22,14,28,29.50
2006,07,22,14,29,29.40
2006,07,22,14,30,29.20
2006,07,22,14,31,29.20
2006,07,22,14,32,29.10
2006,07,22,14,33,29.20
2006,07,22,14,34,29.20
2006,07,22,14,35,29.20
2006,07,22,14,36,29.20
2006,07,22,14,37,29.20
2006,07,22,14,38,29.30
2006,07,22,14,39,29.30
2006,07,22,14,40,29.40
2006,07,22,14,41,29.40
2006,07,22,14,42,29.40
2006,07,22,14,43,29.50
2006,07,22,14,44,29.50
2006,07,22,14,45,29.60
2006,07,22,14,46,29.60
2006,07,22,14,47,29.70
2006,07,22,14,48,29.80
2006,07,22,14,49,29.80
2006,07,22,14,50,29.90
2006,07,22,14,51,29.90
2006,07,22,14,52,30.00
2006,07,22,14,53,30.10
2006,07,22,14,54,30.10
2006,07,22,14,55,30.10
2006,07,22,14,56,30.10
2006,07,22,14,57,30.10
2006,07,22,14,58,30.10
2006,07,22,14,59,30.00
2006,07,22,15,00,30.00
2006,07,22,15,01,30.10
2006,07,22,15,02,30.00
2006,07,22,15,03,30.00
2006,07,22,15,04,30.00
2006,07,22,15,05,30.00
2006,07,22,15,06,30.10
2006,07,22,15,07,30.10
2006,07,22,15,08,30.00
2006,07,22,15,09,30.00
2006,07,22,15,10,29.90
2006,07,22,15,11,29.80
2006,07,22,15,12,29.80
2006,07,22,15,13,29.80
2006,07,22,15,14,29.80
2006,07,22,15,15,29.80
2006,07,22,15,16,29.90
2006,07,22,15,17,30.00
2006,07,22,15,18,30.00
2006,07,22,15,19,30.10
2006,07,22,15,20,30.10
2006,07,22,15,21,30.10
2006,07,22,15,22,30.10
2006,07,22,15,23,30.20
2006,07,22,15,24,30.30
2006,07,22,15,25,30.40
2006,07,22,15,26,30.40
2006,07,22,15,27,30.30
2006,07,22,15,28,30.30
2006,07,22,15,29,30.30
2006,07,22,15,30,30.10
2006,07,22,15,31,30.00
2006,07,22,15,32,29.70
2006,07,22,15,33,29.30
2006,07,22,15,34,29.00
2006,07,22,15,35,28.70
2006,07,22,15,36,28.50
2006,07,22,15,37,28.20
2006,07,22,15,38,28.00
2006,07,22,15,39,27.80
2006,07,22,15,40,27.70
2006,07,22,15,41,27.50
2006,07,22,15,42,27.40
2006,07,22,15,43,27.40
2006,07,22,15,44,27.30
2006,07,22,15,45,27.30
2006,07,22,15,46,27.30
2006,07,22,15,47,27.30
2006,07,22,15,48,27.20
2006,07,22,15,49,27.20
2006,07,22,15,50,27.20
2006,07,22,15,51,27.20
2006,07,22,15,52,27.30
2006,07,22,15,53,27.30
2006,07,22,15,54,27.30
2006,07,22,15,55,27.30
2006,07,22,15,56,27.30
2006,07,22,15,57,27.30
2006,07,22,15,58,27.30
2006,07,22,15,59,27.40
2006,07,22,16,00,27.50
2006,07,22,16,01,27.60
2006,07,22,16,02,27.70
2006,07,22,16,03,27.70
2006,07,22,16,04,27.80
2006,07,22,16,05,27.90
2006,07,22,16,06,27.80
2006,07,22,16,07,27.60
2006,07,22,16,08,27.50
2006,07,22,16,09,27.50
2006,07,22,16,10,27.40
2006,07,22,16,11,27.40
2006,07,22,16,12,27.50
2006,07,22,16,13,27.50
2006,07,22,16,14,27.50
2006,07,22,16,15,27.40
2006,07,22,16,16,27.30
2006,07,22,16,17,27.20
2006,07,22,16,18,27.10
2006,07,22,16,19,26.90
2006,07,22,16,20,26.60
2006,07,22,16,21,26.20
2006,07,22,16,22,25.90
2006,07,22,16,23,25.70
2006,07,22,16,24,25.60
2006,07,22,16,25,25.50
2006,07,22,16,26,25.40
2006,07,22,16,27,25.40
2006,07,22,16,28,25.40
2006,07,22,16,29,25.50
2006,07,22,16,30,25.60
2006,07,22,16,31,25.70
2006,07,22,16,32,25.70
2006,07,22,16,33,25.70
2006,07,22,16,34,25.70
2006,07,22,16,35,25.60
2006,07,22,16,36,25.50
2006,07,22,16,37,25.50
2006,07,22,16,38,25.40
2006,07,22,16,39,25.40
2006,07,22,16,40,25.30
2006,07,22,16,41,25.20
2006,07,22,16,42,25.10
2006,07,22,16,43,25.00
2006,07,22,16,44,24.80
2006,07,22,16,45,24.70
2006,07,22,16,46,24.70
2006,07,22,16,47,24.60
2006,07,22,16,48,24.50
2006,07,22,16,49,24.40
2006,07,22,16,50,24.40
2006,07,22,16,51,24.50
2006,07,22,16,52,24.70
2006,07,22,16,53,24.80
2006,07,22,16,54,24.80
2006,07,22,16,55,24.90
2006,07,22,16,56,24.90
2006,07,22,16,57,25.00
2006,07,22,16,58,25.00
2006,07,22,16,59,25.10
2006,07,22,17,00,25.10
2006,07,22,17,01,25.10
2006,07,22,17,02,25.10
2006,07,22,17,03,25.10
2006,07,22,17,04,25.10
2006,07,22,17,05,25.20
2006,07,22,17,06,25.20
2006,07,22,17,07,25.20
2006,07,22,17,08,25.20
2006,07,22,17,09,25.10
2006,07,22,17,10,25.10
2006,07,22,17,11,25.10
2006,07,22,17,12,25.10
2006,07,22,17,13,25.10
2006,07,22,17,14,24.90
2006,07,22,17,15,24.70
2006,07,22,17,16,24.50
2006,07,22,17,17,24.40
2006,07,22,17,18,24.30
2006,07,22,17,19,24.30